Starlink 3291

operational
NORAD ID: 50175 Int'l Des: 2021-125 Owner: SPXS Country: US Constellation: starlink
LEOCIRCULAR

Über Starlink 3291

Beschreibung wird geladen...

Live-Position

3D-Globus wird geladen...

Nächste Überflüge

Höhenverlauf

Altitude vs Time

uPlot chart will show altitude changes over time

Zweizeiliger Elementsatz

1 50175U 21125V 25259.16381617 .00000228 00000-0 32432-4 0 9995
2 50175 53.2122 312.5977 0001416 88.1509 271.9645 15.08839012210253
Epoch: 16. Sept. 2025 • Age: 11 hours

Aktueller Status

Höhe 543.6 km
Geschwindigkeit 7.60 km/s
Subsatellitenpunkt 44.89°N, 132.47°E
Startdatum 18. Dez. 2021
Alter 3.7 years
Typ internet

Technische Details

Klassifizierung Payload
Masse 290.00 kg
Trockenmasse 270.00 kg
Gesamtmasse 290.00 kg
Länge 0.20 m
Durchmesser 2.80 m
Spannweite 9.00 m
Form Box + pan
Hersteller SPXS
Bus-Typ Starlink
Phasenstatus In Orbit
Besitzer/Staat SPXS/US

Große Konstellationen

Loading constellations...